Regional Weather Roundup
Issued by NWS Sterling, VA

Home | Current Version | Previous Version | Text Only | Print | Product List | Glossary On
Versions: 1 2 3 4 5 6 7 8 9 10 11 12 13 14 15 16 17 18 19 20 21 22 23 24 25 26 27 28 29 30 31 32 33 34 35 36 37 38 39 40 41 42 43 44 45 46 47 48 49 50
000
ASUS41 KLWX 211310
RWRLWX

REGIONAL WEATHER ROUNDUP
NATIONAL WEATHER SERVICE BALTIMORE MD/WASHINGTON DC
900 AM EDT TUE OCT 21 2014

Note: "FAIR" indicates few or no clouds below 12,000 feet
with no significant weather and/or obstructions to visibility.
 TC=TEMPERATURE CELSIUS

 * =Non NWS site. Station does not report precipitation (e.g. rain,
    snow, etc.), thunder, or fog.

DCZ001-MDZ009-015-VAZ040>042-051-053>054-211400-
WASHINGTON METRO

CITY           SKY/WX    TMP DP  RH WIND       PRES   REMARKS
WASHINGTON NAT MOSUNNY   57  49  74 SW5       29.89R
DULLES         MOSUNNY   52  48  86 NW3       29.88R
ANDREWS AFB    MOSUNNY   54  50  85 SW2       29.88R
FT BELVOIR     SUNNY     51  50  98 NW3       29.90R
QUANTICO       MOSUNNY   55  49  80 CALM      29.90R
COLLEGE PARK*  MOSUNNY   50  50 100 CALM      29.88R
LEESBURG*      CLOUDY    52  52 100 CALM      29.90R
MANASSAS*      SUNNY     48  48 100 CALM      29.88
GAITHERSBURG*  SUNNY     50  48  93 CALM      29.91S

$$

MDZ006>007-011-014-211400-
BALTIMORE METRO

CITY           SKY/WX    TMP DP  RH WIND       PRES   REMARKS
BWI AIRPORT    MOSUNNY   52  49  89 CALM      29.87R
MD SCIENCE CTR   N/A     59  50  72 MISG      29.88R
MARTIN STATE   MOSUNNY   52  52 100 CALM      29.89R
ANNAPOLIS      MOSUNNY   57  48  72 CALM      29.88R
FORT MEADE*    SUNNY     43  43 100 CALM      29.90S

$$

MDZ012-015-019>023-211400-
MARYLAND EASTERN SHORE

CITY           SKY/WX    TMP DP  RH WIND       PRES   REMARKS
OCEAN CITY     LGT RAIN  61  56  83 W6        29.89F
SALISBURY      CLOUDY    61  56  83 S3        29.89S
BAY BRIDGE AP*   N/A     55  50  82 CALM      29.89R
CAMBRIDGE*     MOSUNNY   57  54  88 SE3       29.88R
EASTON*        SUNNY     57  57 100 CALM      29.92R

$$

MDZ017>025-211400-
SOUTHERN MARYLAND

CITY           SKY/WX    TMP DP  RH WIND       PRES   REMARKS
PATUXENT RIVER CLOUDY    58  49  72 SW5       29.88R
ST INIGOES     PTSUNNY   60  50  69 SW6       29.89R
LEONARDTOWN*   CLOUDY    55  50  82 CALM      29.89S

$$

MDZ003>005-211400-
NORTH CENTRAL MARYLAND

CITY           SKY/WX    TMP DP  RH WIND       PRES   REMARKS
FREDERICK*     MOSUNNY   54  52  94 CALM      29.91R
HAGERSTOWN APT SUNNY     51  49  92 E3        29.87R
WESTMINSTER*   SUNNY     52  48  87 CALM      29.87S

$$

MDZ501>502-211400-
WESTERN MARYLAND

CITY           SKY/WX    TMP DP  RH WIND       PRES   REMARKS
OAKLAND*       CLOUDY    45 N/A N/A W9        29.89R FOG
CUMBERLAND*    SUNNY     48  48 100 CALM      29.92S

$$

VAZ025>031-211400-
SHENANDOAH VALLEY

CITY           SKY/WX    TMP DP  RH WIND       PRES   REMARKS
WINCHESTER*    MOSUNNY   54  45  71 SW3       29.88R
FRONT ROYAL*   FAIR      50  46  87 S3        29.88R
LURAY*         FAIR      52  50  93 CALM      29.89R
NEW MARKET*    FAIR      49  47  94 CALM      29.89S
STAUNTON*      MOSUNNY   51  47  84 CALM      29.92R
WAYNESBORO*    FAIR      55  46  73 SW6       29.90R

$$

WVZ021-048>050-054>055-211400-
EASTERN WEST VIRGINIA PANHANDLE

CITY           SKY/WX    TMP DP  RH WIND       PRES   REMARKS
MARTINSBURG    MOSUNNY   49  45  86 S5        29.88R
PETERSBURG*    PTSUNNY  N/A N/A N/A CALM      29.91R

$$

VAZ036>039-050-211400-
CENTRAL FOOTHILLS

CITY           SKY/WX    TMP DP  RH WIND       PRES   REMARKS
CHARLOTTESVILL PTSUNNY   58  49  72 CALM      29.88S
CULPEPER*      MOSUNNY   54  50  87 CALM      29.90R
ORANGE*        CLOUDY    54  50  87 CALM      29.90R
GORDONSVILLE*  CLOUDY    55  49  80 SW3       29.89R
WARRENTON*     FAIR      53  53 100 SW3       29.88R

$$

VAZ055>057-211400-
NORTH AND CENTRAL PIEDMONT

CITY           SKY/WX    TMP DP  RH WIND       PRES   REMARKS
FREDERICKSBRG* SUNNY     57  51  81 CALM      29.88R
STAFFORD*      SUNNY     52  52 100 CALM      29.92S

$$

NCZ024-NYZ072-PAZ021-071-VAZ022-071-211400-
OTHER REGIONAL OBSERVATIONS

CITY           SKY/WX    TMP DP  RH WIND       PRES   REMARKS
NEW YORK CITY  MOSUNNY   58  46  64 E5        29.92S
PHILADELPHIA   MOSUNNY   56  51  84 E3        29.88S
PITTSBURGH     CLOUDY    50  49  96 W6        29.87R FOG
ROANOKE        MOSUNNY   53  47  79 W9        29.95R
RICHMOND       PTSUNNY   58  50  75 CALM      29.90R
RALEIGH        MOSUNNY   56  50  80 SW5       29.94R

$$

ANZ530>537-211400-
MARINE OBSERVATIONS

STATION/POSITION TIME  TEMP    WIND        PRES
                       AIR SEA DIR/SP/G
                 (UTC) (F)     (DEG/KT/KT) (MB)
THOMAS PT LIGHT  1300   57 63  240/  3/  3 1013.1R
BALT KEY BRIDGE  1300   56     280/  3/  4 1011.3F
COVE POINT       1300   59     270/ 11/ 12 1011.6R
LEWISETTA        1300   58 62  220/  8/  9 1011.7S
SOLOMONS ISLAND  1300      65                N/A
PINEY POINT      1300          260/  4/  6   N/A

$$




USA.gov is the U.S. government's official web portal to all federal, state and local government web resources and services.